星链-6323 (STARLINK-6323 )

导读

STARLINK-6323是美国SpaceX星链计划中的一颗卫星,于2023年5月14日发射升空,属于星链星座组网卫星,主要为全球提供低延迟、高速率的宽带互联网服务,依托近地轨道部署,可弥补传统地面网络覆盖盲区,推动全球互联基础设施建设。

基本信息
目录编号:
56524
目录名称:
STARLINK-6323
国际标识:
2023-065X
轨道中心:
EARTH
卫星名称:
星链-6323
卫星全名:
星链-6323 (STARLINK-6323 )
卫星状态:
在轨 (已飞行1217 天)
发射日期:
2023-05-14 UTC
国别 :
美国 (US)
星等 :
--
该卫星已列入 空间交会检测服务 Space Conjunction Data Service (SCDS) ,当前飞行风险评估等级: 无高风险
轨道信息
数据来源 国际轨道数据
星历时间: 2026-09-12T08:38:37+0800
16小时前
查看轨道信息
半长轴: 6861.199km
偏心率: 0.0001698
轨道倾角: 43.003°
近地点辐角 281.144°
升交点赤经 240.477°
平近点角 78.922°
近地点: 481.896km
远地点: 484.228km
周期: 94.267分钟
每日圈数: 15.275757
详细信息
固有亮度:
5
最大亮度:
2.5
卫星平台:
Starlink v1.5
覆盖范围:
全球
运营商:
太空探索技术公司
运营商所在国:
美国
制造商(研发单位):
太空探索技术公司
制造商所在国:
美国
使用方式:
暂无
卫星简介
星链(Starlink)计划是由太空探索技术公司(SpaceX)提出的一个巨型低轨卫星互联网星座项目,计划在2019年至2024年间在太空搭建由约1.2万颗卫星组成的“星链”网络,其中1584颗将部署在地球上空550千米处的近地轨道,并从2020年开始工作。该卫星仍在工作。
2D轨道图
3D轨道图
轨道高度分析图
轨道倾角分析图
轨道综合分析图
查看轨道综合分析图
交会数据列表
事件ID 空间交会对象 最接近时刻(TCA) 交会距离 交会风险概率(CRP) 交会风险指数(CRI) 操作
CDM_260914-195105-652406-249721
2026-09-14T
19:51:34+0000
0.426 km
远距离
1.812868E-4 高风险 0.8
CDM_260914-194505-652406-734321
2026-09-14T
19:45:08+0000
0.850 km
远距离
9.559338E-6 低风险 0.55
CDM_260915-011405-652406-734321
2026-09-15T
01:14:41+0000
1.003 km
极远距离
5.443871E-6 低风险 0.5
CDM_260914-211905-652406-734321
2026-09-14T
21:19:18+0000
1.209 km
极远距离
2.911135E-6 低风险 0.44
CDM_260914-212505-652406-249721
2026-09-14T
21:25:43+0000
2.181 km
极远距离
1.394066E-6 低风险 0.38
CDM_260914-234005-652406-734321
2026-09-14T
23:40:31+0000
1.585 km
极远距离
1.278253E-6 低风险 0.37
CDM_260914-181705-652406-249721
2026-09-14T
18:17:24+0000
2.920 km
极远距离
8.627892E-7 极低风险 0.34
CDM_260915-033005-652406-397121
2026-09-15T
03:30:38+0000
2.831 km
极远距离
6.562768E-7 极低风险 0.31
CDM_260914-181005-652406-734321
2026-09-14T
18:10:59+0000
2.635 km
极远距离
4.499499E-7 极低风险 0.28
与全量物体交会距离演化趋势
与全量物体交会风险概率演化趋势